When you browse on this site, cookies collect data to enhance your experience and personalize the content and advertising you see.
Visit our Privacy Policy to learn more. By continuing to use the site, you agree to this use of cookies and data.
  • In Romania
  • List of Countries
  • For 7 days
  • Water Temperature
  • Weather Map
  • Weather Widgets
  • user-avatar
    Login

    Hourly Weather Macapa

    Today, 23 February, Sunday

    Time Temperature Precipitation Wind Pressure Humidity
    00:00 +26°C° 0 mm 2 mps 759 mmHg 95%
    01:00 +26°C° 0 mm 2 mps 759 mmHg 95%
    02:00 +26°C° 0 mm 2 mps 758 mmHg 95%
    03:00 +26°C° 0 mm 2 mps 758 mmHg 95%
    04:00 +26°C° 0 mm 2 mps 758 mmHg 95%
    05:00 +26°C° 0 mm 1 mps 758 mmHg 96%
    06:00 +26°C° 0 mm 1 mps 758 mmHg 96%
    07:00 +27°C° 0.2 mm 1 mps 758 mmHg 92%
    08:00 +28°C° 0.2 mm 1 mps 759 mmHg 89%
    09:00 +29°C° 0.2 mm 1 mps 759 mmHg 85%
    10:00 +30°C° 1 mm 2 mps 759 mmHg 83%
    11:00 +30°C° 1 mm 2 mps 759 mmHg 81%
    12:00 +31°C° 1 mm 3 mps 759 mmHg 79%
    13:00 +31°C° 0.4 mm 3 mps 758 mmHg 76%
    14:00 +31°C° 0.4 mm 3 mps 757 mmHg 73%
    15:00 +33°C° 0.4 mm 3 mps 756 mmHg 71%
    16:00 +31°C° 0.1 mm 3 mps 756 mmHg 75%
    17:00 +30°C° 0.1 mm 3 mps 756 mmHg 78%
    18:00 +30°C° 0.1 mm 3 mps 757 mmHg 82%
    19:00 +29°C° 0 mm 3 mps 757 mmHg 85%
    20:00 +28°C° 0 mm 3 mps 757 mmHg 88%
    21:00 +27°C° 0 mm 3 mps 758 mmHg 91%
    22:00 +27°C° 0 mm 3 mps 758 mmHg 92%
    23:00 +27°C° 0 mm 3 mps 758 mmHg 93%

    Tomorrow, 24 February, Monday

    Time Temperature Precipitation Wind Pressure Humidity
    00:00 +26°C° 0 mm 2 mps 759 mmHg 95%
    01:00 +26°C° 0 mm 2 mps 758 mmHg 95%
    02:00 +26°C° 0 mm 2 mps 758 mmHg 96%
    03:00 +26°C° 0 mm 2 mps 757 mmHg 96%
    04:00 +26°C° 0.1 mm 2 mps 757 mmHg 97%
    05:00 +26°C° 0.1 mm 2 mps 757 mmHg 97%
    06:00 +26°C° 0.1 mm 2 mps 757 mmHg 97%
    07:00 +27°C° 0.1 mm 2 mps 758 mmHg 93%
    08:00 +28°C° 0.1 mm 2 mps 758 mmHg 89%
    09:00 +28°C° 0.1 mm 3 mps 759 mmHg 86%
    10:00 +29°C° 0.9 mm 3 mps 759 mmHg 84%
    11:00 +30°C° 0.9 mm 3 mps 759 mmHg 83%
    12:00 +30°C° 0.9 mm 3 mps 758 mmHg 82%
    13:00 +31°C° 1 mm 3 mps 758 mmHg 81%
    14:00 +32°C° 1 mm 4 mps 757 mmHg 81%
    15:00 +32°C° 1 mm 4 mps 756 mmHg 80%
    16:00 +30°C° 0.6 mm 4 mps 756 mmHg 83%
    17:00 +30°C° 0.6 mm 4 mps 756 mmHg 85%
    18:00 +29°C° 0.6 mm 4 mps 756 mmHg 87%
    19:00 +28°C° 0.1 mm 4 mps 756 mmHg 89%
    20:00 +28°C° 0.1 mm 3 mps 757 mmHg 91%
    21:00 +27°C° 0.1 mm 3 mps 758 mmHg 92%
    22:00 +27°C° 0 mm 3 mps 758 mmHg 92%
    23:00 +27°C° 0 mm 3 mps 758 mmHg 92%

    Day after tomorrow, 25 February, Tuesday

    Time Temperature Precipitation Wind Pressure Humidity
    00:00 +27°C° 0 mm 3 mps 758 mmHg 92%
    01:00 +26°C° 0 mm 3 mps 758 mmHg 93%
    02:00 +26°C° 0 mm 3 mps 757 mmHg 93%
    03:00 +26°C° 0 mm 2 mps 757 mmHg 94%
    04:00 +26°C° 0 mm 2 mps 757 mmHg 94%
    05:00 +26°C° 0 mm 2 mps 757 mmHg 94%
    06:00 +26°C° 0 mm 3 mps 757 mmHg 95%
    07:00 +27°C° 0 mm 3 mps 757 mmHg 91%
    08:00 +28°C° 0 mm 3 mps 758 mmHg 87%
    09:00 +29°C° 0 mm 3 mps 758 mmHg 83%
    10:00 +30°C° 0.1 mm 3 mps 758 mmHg 77%
    11:00 +31°C° 0.1 mm 3 mps 758 mmHg 70%
    12:00 +34°C° 0.1 mm 3 mps 757 mmHg 64%
    13:00 +34°C° 0.6 mm 3 mps 757 mmHg 66%
    14:00 +33°C° 0.6 mm 3 mps 756 mmHg 69%
    15:00 +33°C° 0.6 mm 3 mps 755 mmHg 71%
    16:00 +31°C° 1.2 mm 3 mps 755 mmHg 76%
    17:00 +30°C° 1.2 mm 3 mps 755 mmHg 81%
    18:00 +29°C° 1.2 mm 3 mps 755 mmHg 85%
    19:00 +28°C° 0.5 mm 3 mps 756 mmHg 87%
    20:00 +28°C° 0.5 mm 3 mps 756 mmHg 89%
    21:00 +27°C° 0.5 mm 3 mps 757 mmHg 91%
    22:00 +27°C° 0 mm 3 mps 757 mmHg 91%
    23:00 +26°C° 0 mm 3 mps 758 mmHg 92%

    26 February, Wednesday

    Time Temperature Precipitation Wind Pressure Humidity
    00:00 +26°C° 0 mm 3 mps 758 mmHg 92%
    01:00 +26°C° 0 mm 3 mps 757 mmHg 93%
    02:00 +26°C° 0 mm 3 mps 757 mmHg 93%
    03:00 +25°C° 0 mm 3 mps 757 mmHg 93%
    04:00 +25°C° 0 mm 3 mps 757 mmHg 92%
    05:00 +25°C° 0 mm 3 mps 756 mmHg 92%
    06:00 +25°C° 0 mm 3 mps 756 mmHg 91%
    07:00 +26°C° 0 mm 3 mps 757 mmHg 87%
    08:00 +27°C° 0 mm 3 mps 758 mmHg 83%
    09:00 +28°C° 0 mm 3 mps 758 mmHg 80%
    10:00 +29°C° 0 mm 3 mps 758 mmHg 75%
    11:00 +30°C° 0 mm 3 mps 758 mmHg 70%
    12:00 +31°C° 0 mm 3 mps 758 mmHg 65%
    13:00 +31°C° 0 mm 3 mps 757 mmHg 66%
    14:00 +31°C° 0 mm 3 mps 756 mmHg 67%
    15:00 +31°C° 0 mm 3 mps 756 mmHg 67%
    16:00 +30°C° 0 mm 3 mps 756 mmHg 71%
    17:00 +30°C° 0 mm 2 mps 756 mmHg 74%
    18:00 +29°C° 0 mm 2 mps 755 mmHg 77%
    19:00 +28°C° 0.1 mm 3 mps 756 mmHg 79%
    20:00 +28°C° 0.1 mm 3 mps 757 mmHg 81%
    21:00 +27°C° 0.1 mm 4 mps 757 mmHg 84%
    22:00 +26°C° 0.1 mm 3 mps 758 mmHg 85%
    23:00 +26°C° 0.1 mm 3 mps 758 mmHg 86%

    27 February, Thursday

    Time Temperature Precipitation Wind Pressure Humidity
    00:00 +26°C° 0.1 mm 3 mps 758 mmHg 87%
    01:00 +25°C° 0 mm 3 mps 758 mmHg 88%
    02:00 +25°C° 0 mm 3 mps 757 mmHg 89%
    03:00 +25°C° 0 mm 3 mps 757 mmHg 89%
    04:00 +25°C° 0 mm 3 mps 757 mmHg 89%
    05:00 +25°C° 0 mm 3 mps 757 mmHg 89%
    06:00 +25°C° 0 mm 2 mps 757 mmHg 89%
    07:00 +26°C° 0.1 mm 2 mps 757 mmHg 87%
    08:00 +26°C° 0.1 mm 2 mps 758 mmHg 84%
    09:00 +27°C° 0.1 mm 2 mps 759 mmHg 81%
    10:00 +28°C° 0 mm 2 mps 759 mmHg 77%
    11:00 +29°C° 0 mm 2 mps 759 mmHg 72%
    12:00 +30°C° 0 mm 1 mps 759 mmHg 68%
    13:00 +31°C° 0 mm 1 mps 758 mmHg 65%
    14:00 +31°C° 0 mm 1 mps 757 mmHg 62%
    15:00 +32°C° 0 mm 1 mps 756 mmHg 60%
    16:00 +31°C° 0.2 mm 1 mps 756 mmHg 66%
    17:00 +30°C° 0.2 mm 2 mps 756 mmHg 72%
    18:00 +29°C° 0.2 mm 2 mps 756 mmHg 78%
    19:00 +29°C° 0.1 mm 2 mps 756 mmHg 82%
    20:00 +28°C° 0.1 mm 2 mps 757 mmHg 85%
    21:00 +27°C° 0.1 mm 2 mps 757 mmHg 89%
    22:00 +26°C° 0 mm 3 mps 758 mmHg 89%
    23:00 +26°C° 0 mm 3 mps 758 mmHg 89%

    28 February, Friday

    Time Temperature Precipitation Wind Pressure Humidity
    00:00 +26°C° 0 mm 3 mps 758 mmHg 90%
    01:00 +25°C° 0 mm 3 mps 758 mmHg 90%
    02:00 +25°C° 0 mm 3 mps 757 mmHg 90%
    03:00 +25°C° 0 mm 3 mps 757 mmHg 90%
    04:00 +25°C° 0 mm 3 mps 757 mmHg 90%
    05:00 +25°C° 0 mm 3 mps 757 mmHg 91%
    06:00 +25°C° 0 mm 3 mps 757 mmHg 91%
    07:00 +26°C° 0 mm 3 mps 757 mmHg 87%
    08:00 +27°C° 0 mm 3 mps 758 mmHg 83%
    09:00 +28°C° 0 mm 3 mps 759 mmHg 79%
    10:00 +29°C° 0 mm 3 mps 759 mmHg 74%
    11:00 +31°C° 0 mm 2 mps 759 mmHg 68%
    12:00 +32°C° 0 mm 2 mps 758 mmHg 63%
    13:00 +32°C° 0.1 mm 2 mps 757 mmHg 63%
    14:00 +32°C° 0.1 mm 2 mps 757 mmHg 63%
    15:00 +34°C° 0.1 mm 2 mps 756 mmHg 63%
    16:00 +32°C° 0.7 mm 2 mps 756 mmHg 68%
    17:00 +31°C° 0.7 mm 2 mps 755 mmHg 74%
    18:00 +30°C° 0.7 mm 3 mps 755 mmHg 79%
    19:00 +29°C° 0.3 mm 3 mps 756 mmHg 83%
    20:00 +28°C° 0.3 mm 3 mps 757 mmHg 86%
    21:00 +27°C° 0.3 mm 3 mps 757 mmHg 89%
    22:00 +27°C° 0 mm 3 mps 758 mmHg 90%
    23:00 +27°C° 0 mm 3 mps 758 mmHg 90%
    Show more